Regional Weather Roundup
Issued by NWS State College, PA

Home | Current Version | Previous Version | Graphics & Text | Print | Product List | Glossary On
Versions: 1 2 3 4 5 6 7 8 9 10 11 12 13 14 15 16 17 18 19 20 21 22 23 24 25 26 27 28 29 30 31 32 33 34 35 36 37 38 39 40 41 42 43 44 45 46 47 48 49 50
000
ASUS41 KCTP 021810
RWRCTP

REGIONAL WEATHER ROUNDUP
NATIONAL WEATHER SERVICE STATE COLLEGE PA
200 PM EDT THU OCT 02 2014

Note: "fair" indicates few or no clouds below 12,000 feet with no
significant weather and/or obstructions to visibility.

* = STATION THAT DOES NOT REPORT PRECIPITATION /E.G. RAIN...SNOW...ETC/
    THUNDER OR FOG.

PAZ002>004-007>009-013>016-020>023-029>032-021900-
WESTERN PENNSYLVANIA

CITY           SKY/WX    TMP DP  RH WIND       PRES   REMARKS
ERIE           MOSUNNY   73  55  53 S7        30.04F
MEADVILLE      MOSUNNY   69  53  56 MISG      30.07F
FRANKLIN*      PTSUNNY   68  52  56 S8        30.09S
NEW CASTLE       N/A     71  60  68 E6        30.07F
BEAVER COUNTY  SUNNY     72  55  56 SE7       30.07F
BUTLER*        SUNNY     72  54  53 SE7       30.09F
PITTSBURGH INT MOSUNNY   72  53  51 S8        30.06F
PITTSBURGH     SUNNY     73  49  42 W6        30.06F
INDIANA*       MOSUNNY   72  52  49 CALM      30.11F
LATROBE        MOSUNNY   72  52  49 CALM      30.09F
WASHINGTON CO* SUNNY     73  55  53 CALM      30.08F
$$

PAZ004>006-010>012-017>019-024>028-033>037-041-042-045-046-049>053-021900-
CENTRAL PENNSYLVANIA

CITY           SKY/WX    TMP DP  RH WIND       PRES   REMARKS
BRADFORD       PTSUNNY   65  54  67 E9        30.11F
DUBOIS         PTSUNNY   69  54  58 S8        30.09F
CLEARFIELD     PTSUNNY   71  56  58 MISG      30.11F
JOHNSTOWN      SUNNY     68  48  48 S3        30.10F
ALTOONA        MOSUNNY   68  57  68 CALM      30.11F
STATE COLLEGE  CLOUDY    64  57  77 CALM      30.11F
WILLIAMSPORT   CLOUDY    68  55  63 SW6       30.11F
SELINSGROVE    CLOUDY    67  57  70 S3        30.13F
FT INDIANTOWN  CLOUDY    67  61  80 CALM      30.12F
CAPITAL CITY   PTSUNNY   68  57  68 E5        30.11F
HARRISBURG     CLOUDY    70  57  63 S3        30.11F
YORK           MOSUNNY   71  58  63 VRB3      30.11F
$$

PAZ038>040-043-044-047-048-054-055-060>062-067>071-021900-
EASTERN PENNSYLVANIA

CITY           SKY/WX    TMP DP  RH WIND       PRES   REMARKS
SCRANTON       CLOUDY    69  52  54 E6        30.10F
MOUNT POCONO   CLOUDY    60  52  74 SE3       30.14F
ALLENTOWN      CLOUDY    69  54  58 NE3       30.11F
QUAKERTOWN*    MOCLDY    66  55  68 SE3       30.12F
READING        CLOUDY    69  56  62 W5        30.10F
LANCASTER      PTSUNNY   68  55  63 N5        30.11F
COATESVILLE    MOCLDY    64  57  77 CALM      30.12F
POTTSTOWN      CLOUDY    67  56  67 CALM      30.12F
BLUE BELL      CLOUDY    68  55  64 CALM      30.11F
DOYLESTOWN     CLOUDY    66  55  67 NE5       30.11F
WILLOW GROVE   NOT AVBL
NORTH PHILA    CLOUDY    69  53  56 NE5       30.13F
PHILADELPHIA   CLOUDY    69  56  62 E8        30.11F
$$


USA.gov is the U.S. government's official web portal to all federal, state and local government web resources and services.